PDT,Max TemperatureF,Mean TemperatureF,Min TemperatureF,Max Dew PointF,MeanDew PointF,Min DewpointF,Max Humidity, Mean Humidity, Min Humidity, Max Sea Level PressureIn, Mean Sea Level PressureIn, Min Sea Level PressureIn, Max VisibilityMiles, Mean VisibilityMiles, Min VisibilityMiles, Max Wind SpeedMPH, Mean Wind SpeedMPH, Max Gust SpeedMPH,PrecipitationIn, CloudCover, Events, WindDirDegrees
2013-4-1,62,55,48,50,48,46,94,78,55,30.16,30.12,30.06,10,10,10,9,6,,0.00,4,,126
2013-4-2,66,56,46,52,47,43,94,76,56,30.16,30.13,30.08,10,10,10,9,4,,0.00,0,,72
2013-4-3,69,60,50,55,51,46,94,74,52,30.14,30.08,30.00,10,10,10,10,5,,0.00,0,,108
2013-4-4,57,52,48,57,52,39,100,93,54,30.12,30.06,29.99,10,8,1,18,6,22,0.31,6,,165
2013-4-5,62,56,51,54,50,46,100,83,59,30.16,30.13,30.10,10,10,3,10,5,,0.00,6,,181
2013-4-6,62,56,50,52,50,48,94,83,63,30.19,30.15,30.11,10,10,10,9,6,16,0.00,5,,163
2013-4-7,62,54,46,52,49,45,100,80,59,30.14,30.01,29.79,10,10,5,13,7,22,0.04,4,,177
2013-4-8,62,53,44,46,37,27,100,62,26,30.00,29.85,29.72,10,9,3,15,6,24,0.08,3,,346
2013-4-9,68,56,44,39,34,28,62,44,30,30.12,30.06,30.00,10,10,10,14,4,26,0.00,0,,328
2013-4-10,78,63,48,54,42,30,72,46,27,30.19,30.11,30.00,10,10,10,10,2,,0.00,0,,304
2013-4-11,71,60,50,54,46,37,88,60,31,30.01,29.93,29.83,10,10,10,12,3,17,0.00,0,,302
2013-4-12,73,60,46,52,43,37,81,52,29,29.90,29.86,29.82,10,10,8,10,3,,0.00,0,,166
2013-4-13,73,60,48,52,45,39,77,55,40,29.88,29.84,29.81,10,10,10,12,6,,0.00,0,,308
2013-4-14,66,55,44,46,40,32,87,56,30,29.88,29.83,29.75,10,10,10,12,4,17,0.00,1,,217
2013-4-15,57,48,39,46,40,34,100,74,44,29.88,29.83,29.79,10,10,9,10,5,,0.00,4,,190
2013-4-16,62,48,33,37,30,19,93,53,22,30.15,30.00,29.88,10,10,8,20,4,28,0.00,0,,354
2013-4-17,62,48,33,30,27,23,75,41,26,30.23,30.19,30.15,10,10,10,16,3,24,0.00,0,,317
2013-4-18,69,58,46,39,30,21,62,36,26,30.27,30.23,30.20,10,10,10,12,5,,0.00,0,,116
2013-4-19,73,60,48,46,40,36,72,47,31,30.25,30.18,30.09,10,10,5,10,4,,0.00,0,,145
2013-4-20,75,62,48,52,42,37,82,49,25,30.11,30.06,30.00,10,10,10,12,6,16,0.00,0,,35
2013-4-21,78,66,55,48,44,41,63,46,26,30.06,30.02,29.98,10,10,9,10,6,,0.00,0,,85
2013-4-22,80,68,55,54,44,36,67,45,21,30.00,29.95,29.88,10,10,10,12,5,16,0.00,0,,29
2013-4-23,77,65,53,43,33,21,58,29,19,29.95,29.90,29.87,10,10,10,9,5,,0.00,0,,350
2013-4-24,84,70,57,48,34,27,72,30,14,29.89,29.85,29.79,10,10,10,15,8,22,0.00,0,,85
2013-4-25,69,58,48,52,47,45,87,64,43,30.09,30.00,29.88,10,10,10,13,6,18,0.00,0,,164
2013-4-26,75,60,46,52,48,43,87,60,38,30.21,30.16,30.09,10,10,10,12,4,,0.00,0,,211
2013-4-27,80,68,55,55,51,46,77,55,34,30.22,30.16,30.08,10,10,9,9,5,,0.00,0,,158
2013-4-28,82,71,60,54,47,37,63,43,28,30.08,30.01,29.92,10,10,10,10,5,,0.00,0,,61
2013-4-29,82,68,55,55,49,43,77,50,25,29.92,29.87,29.79,10,10,5,12,3,17,0.00,0,,285
2013-4-30,78,64,50,52,41,18,87,44,14,29.87,29.81,29.77,10,10,10,12,3,18,0.00,0,,310